Time,TemperatureF,DewpointF,PressureIn,WindDirection,WindDirectionDegrees,WindSpeedMPH,WindSpeedGustMPH,Humidity,HourlyPrecipIn,Conditions,Clouds,dailyrainin,SoftwareType,DateUTC
2014-12-28 00:02:00,36.1,33.0,29.98,West,269,5.0,-999.0,89,-99.99,,,0.00,weatherlink.com 1.10,2014-12-28 05:02:00,
2014-12-28 00:17:00,35.9,33.0,29.97,West,272,2.0,-999.0,90,-99.99,,,0.00,weatherlink.com 1.10,2014-12-28 05:17:00,
2014-12-28 00:32:00,35.8,33.0,29.97,WSW,248,5.0,-999.0,90,-99.99,,,0.00,weatherlink.com 1.10,2014-12-28 05:32:00,
2014-12-28 00:47:00,35.7,33.0,29.96,West,279,5.0,-999.0,90,-99.99,,,0.00,weatherlink.com 1.10,2014-12-28 05:47:00,
2014-12-28 01:02:00,35.6,33.0,29.95,WSW,238,2.0,-999.0,90,-99.99,,,0.00,weatherlink.com 1.10,2014-12-28 06:02:00,
2014-12-28 01:17:00,35.6,33.0,29.96,West,276,5.0,-999.0,90,-99.99,,,0.00,weatherlink.com 1.10,2014-12-28 06:17:00,
2014-12-28 01:32:00,35.6,33.0,29.96,WSW,241,4.0,-999.0,90,-99.99,,,0.00,weatherlink.com 1.10,2014-12-28 06:32:00,
2014-12-28 01:47:00,35.5,33.0,29.95,West,275,1.0,-999.0,90,-99.99,,,0.00,weatherlink.com 1.10,2014-12-28 06:47:00,
2014-12-28 02:02:00,35.2,33.0,29.96,WNW,299,7.0,-999.0,90,-99.99,,,0.00,weatherlink.com 1.10,2014-12-28 07:02:00,
2014-12-28 02:17:00,35.2,32.0,29.96,WNW,287,6.0,-999.0,88,-99.99,,,0.00,weatherlink.com 1.10,2014-12-28 07:17:00,
2014-12-28 02:32:00,35.2,32.0,29.97,West,277,2.0,-999.0,88,-99.99,,,0.00,weatherlink.com 1.10,2014-12-28 07:32:00,
2014-12-28 02:47:00,35.2,32.0,29.97,West,273,5.0,-999.0,88,-99.99,,,0.00,weatherlink.com 1.10,2014-12-28 07:47:00,
2014-12-28 03:02:00,35.1,32.0,29.98,West,269,2.0,-999.0,87,-99.99,,,0.00,weatherlink.com 1.10,2014-12-28 08:02:00,
2014-12-28 03:17:00,35.1,32.0,29.98,West,260,4.0,-999.0,87,-99.99,,,0.00,weatherlink.com 1.10,2014-12-28 08:17:00,
2014-12-28 03:32:00,35.0,32.0,29.98,West,271,5.0,-999.0,87,-99.99,,,0.00,weatherlink.com 1.10,2014-12-28 08:32:00,
2014-12-28 03:47:00,34.9,32.0,29.98,SW,236,4.0,-999.0,88,-99.99,,,0.00,weatherlink.com 1.10,2014-12-28 08:47:00,
2014-12-28 04:03:00,34.7,32.0,29.97,SW,226,6.0,-999.0,88,-99.99,,,0.00,weatherlink.com 1.10,2014-12-28 09:03:00,
2014-12-28 04:17:00,34.7,32.0,29.98,West,275,6.0,-999.0,89,-99.99,,,0.00,weatherlink.com 1.10,2014-12-28 09:17:00,
2014-12-28 04:32:00,34.6,32.0,29.98,West,265,5.0,-999.0,89,-99.99,,,0.00,weatherlink.com 1.10,2014-12-28 09:32:00,
2014-12-28 04:47:00,34.4,32.0,29.98,WSW,242,1.0,-999.0,90,-99.99,,,0.00,weatherlink.com 1.10,2014-12-28 09:47:00,
2014-12-28 05:03:00,34.4,32.0,29.98,SW,217,1.0,-999.0,90,-99.99,,,0.00,weatherlink.com 1.10,2014-12-28 10:03:00,
2014-12-28 05:17:00,34.4,32.0,29.98,WSW,246,2.0,-999.0,91,-99.99,,,0.00,weatherlink.com 1.10,2014-12-28 10:17:00,
2014-12-28 05:32:00,34.2,32.0,29.99,NW,306,3.0,-999.0,91,-99.99,,,0.00,weatherlink.com 1.10,2014-12-28 10:32:00,
2014-12-28 05:47:00,34.3,32.0,30.00,WSW,254,2.0,-999.0,92,-99.99,,,0.00,weatherlink.com 1.10,2014-12-28 10:47:00,
2014-12-28 06:02:00,34.3,32.0,30.00,West,271,2.0,-999.0,92,-99.99,,,0.00,weatherlink.com 1.10,2014-12-28 11:02:00,
2014-12-28 06:17:00,34.4,32.0,30.01,WSW,252,3.0,-999.0,92,-99.99,,,0.00,weatherlink.com 1.10,2014-12-28 11:17:00,
2014-12-28 06:33:00,34.4,32.0,30.02,WSW,243,0.0,-999.0,92,-99.99,,,0.00,weatherlink.com 1.10,2014-12-28 11:33:00,
2014-12-28 06:48:00,34.4,32.0,30.02,WSW,245,2.0,-999.0,92,-99.99,,,0.00,weatherlink.com 1.10,2014-12-28 11:48:00,
2014-12-28 07:03:00,34.4,33.0,30.03,WSW,246,1.0,-999.0,93,-99.99,,,0.00,weatherlink.com 1.10,2014-12-28 12:03:00,
2014-12-28 07:18:00,34.3,33.0,30.02,NW,310,2.0,-999.0,93,-99.99,,,0.00,weatherlink.com 1.10,2014-12-28 12:18:00,
2014-12-28 07:33:00,33.9,32.0,30.03,WNW,288,6.0,-999.0,94,-99.99,,,0.00,weatherlink.com 1.10,2014-12-28 12:33:00,
2014-12-28 07:48:00,33.7,32.0,30.04,WNW,288,1.0,-999.0,94,-99.99,,,0.00,weatherlink.com 1.10,2014-12-28 12:48:00,
2014-12-28 08:03:00,33.6,32.0,30.04,West,259,1.0,-999.0,94,-99.99,,,0.00,weatherlink.com 1.10,2014-12-28 13:03:00,
2014-12-28 08:18:00,33.6,32.0,30.03,WNW,285,4.0,-999.0,94,-99.99,,,0.00,weatherlink.com 1.10,2014-12-28 13:18:00,
2014-12-28 08:33:00,33.5,32.0,30.03,WSW,252,4.0,-999.0,94,-99.99,,,0.00,weatherlink.com 1.10,2014-12-28 13:33:00,
2014-12-28 08:48:00,33.5,32.0,30.05,NW,306,1.0,-999.0,93,-99.99,,,0.00,weatherlink.com 1.10,2014-12-28 13:48:00,
2014-12-28 09:03:00,33.8,32.0,30.06,WNW,286,2.0,-999.0,93,-99.99,,,0.00,weatherlink.com 1.10,2014-12-28 14:03:00,